Location: ?????????
(38.0736°N, 23.2119°E)
Time: 14:26:50
(UTC+00:00)

Cosmos 371 Rocket - Pass Details

Date: 18 April 2024
Orbit: 680 x 694 km, 74.0° (Epoch: 18 May)

Event Time Altitude Azimuth Distance (km) Brightness Sun altitude
Rises 18:33:55 0° 348° (NNW) 3,046 7.2 -16.8°
Reaches altitude 10° 18:36:19 10° 355° (N) 2,127 6.3 -17.2°
Maximum altitude 18:40:54 44° 68° (ENE) 940 3.7 -17.9°
Enters shadow 18:42:14 35° 109° (ESE) 1,092 3.8 -18.2°
